Regional Weather Roundup
Issued by NWS Charleston, SC

Current Version | Previous Version | Text Only | Print | Product List | Glossary Off
Versions: 1 2 3 4 5 6 7 8 9 10 11 12 13 14 15 16 17 18 19 20 21 22 23 24 25 26 27 28 29 30 31 32 33 34 35 36 37 38 39 40 41 42 43 44 45 46 47 48 49 50

000
ASUS42 KCHS 211627
RWRCHS

REGIONAL WEATHER ROUNDUP
NATIONAL WEATHER SERVICE CHARLESTON SC
1100 AM EST TUE NOV 21 2017

NOTE: "FAIR" INDICATES FEW OR NO CLOUDS BELOW 12,000 FEET WITH NO
SIGNIFICANT WEATHER AND/OR OBSTRUCTIONS TO VISIBILITY.

NOT ALL STATIONS ARE QUALITY CONTROLLED. USE DATA WITH CAUTION...
ESPECIALLY DEWPOINT OBSERVATIONS.

SCZ027-030-031-034>040-042>050-211700-
...SOUTHEAST SOUTH CAROLINA...

CITY           SKY/WX    TMP DP  RH WIND       PRES   REMARKS
N CHARLESTON   PTSUNNY   67  55  65 NE8       30.15F
WATERFRONT PRK NOT AVBL
JOHNS ISLAND   FAIR      70  57  64 NE8       30.13F
PINOPOLIS        N/A     55  52  88 NE7       30.09F
MONCKS CORNER  FAIR      64  50  59 NE8       30.15F
SUMMERVILLE    FAIR      64  52  63 NE5       30.16F
BEAUFORT MCAS  CLOUDY    66  56  70 E7        30.13F
BEAUFORT ARPT  FAIR      66  55  68 NE7       30.11F
HILTON HEAD IS MOSUNNY   66  57  72 NE8       30.13F
WALTERBORO     CLOUDY    64  52  63 E6        30.14F
ALLENDALE      PTSUNNY   63  52  67 CALM      30.12F

...SOUTHERN MIDLANDS AND PEE DEE...

CITY           SKY/WX    TMP DP  RH WIND       PRES   REMARKS
GEORGETOWN     CLOUDY    61  54  77 NE7       30.19F
KINGSTREE      CLOUDY    59  46  63 E3        30.18F
ORANGEBURG     CLOUDY    58  48  69 E5        30.16F
BARNWELL         N/A     61  52  72 E6        30.14F
AIKEN          PTSUNNY   57  48  72 SE6       30.18F
MANNING        FAIR      55  50  82 MISG      30.18F
COLUMBIA       CLOUDY    55  46  71 SE3       30.16F
SUMTER         CLOUDY    57  45  64 E8        30.15F
FLORENCE       CLOUDY    59  46  62 E5        30.20F
MYRTLE BEACH   PTSUNNY   62  50  64 N6        30.20F
N MYRTLE BEACH CLOUDY    61  48  62 NE7       30.20F

$$

GAZ063-065-086>088-099>101-113>116-118-119-134>141-150-211700-
...SOUTHEAST GEORGIA...

CITY           SKY/WX    TMP DP  RH WIND       PRES   REMARKS
SAVANNAH ARPT  CLOUDY    69  57  65 E6        30.11F
HUNTER AAF     PTSUNNY   70  58  66 NE6       30.08F
FORT STEWART   LGT RAIN  66  57  72 N5        30.08F
STATESBORO     CLOUDY    63  50  63 CALM      30.11F
SYLVANIA       CLOUDY    63  55  74 E3        30.13F
CLAXTON        PTSUNNY   64  55  72 NE3       30.11F

...CSRA...CENTRAL AND FAR SOUTHEAST GEORGIA...

CITY           SKY/WX    TMP DP  RH WIND       PRES   REMARKS
THOMSON        PTSUNNY   65  51  61 S5        30.17F
AUGUSTA-BUSH   MOSUNNY   60  48  64 E3        30.14F
AUGUSTA-DANIEL PTSUNNY   60  48  64 E5        30.15F
SWAINSBORO     FAIR      63  54  72 E6        30.12F
VIDALIA        CLOUDY    64  55  72 CALM      30.11F
EASTMAN        FAIR      64  47  54 CALM      30.13F
HAZLEHURST     FAIR      64  50  59 E3        30.08F
ALMA           CLOUDY    66  56  70 VRB3      30.09F
WAYCROSS       CLOUDY    71  57  61 SE6       30.07F
JESUP          PTSUNNY   70  57  64 CALM      30.08F
BAXLEY         FAIR      66  55  68 E3        30.08F
BRUNSWICK      PTSUNNY   70  61  73 E6        30.08F
SAINT SIMONS   CLOUDY    72  63  73 E6        30.08F

$$

SCZ027-028-034-036>038-045-046-048>050-GAZ119-141-211700-
...LAKE AND SUPPLEMENTAL COASTAL OBSERVATIONS...

STATION/POSITION TIME  TEMP    WIND        PRES    WAVE   SWELL
                       AIR SEA DIR/SP/G            HT/PER HT/PER/DIR
                 (UTC) (F)     (DEG/KT/KT) (MB)    (FT/S) (FT/S/D)
WINYAH BAY       1545   59      50/ 10     1022.0F
LAKE MURRAY      1620   56     110/  5/  8 1020.0
ACE BASIN NERRS  1545   68      40/  4     1021.0S
FORT PULASKI     1600   64 61   60/ 11/ 15 1019.8
SAPELO ISLAND    1600   72     110/  5     1019.0

$$

ANZ835-935-AMZ111-154-330-350-352-354-370-450-454-472-211700-
...C-MAN AND BUOY OBSERVATIONS...

STATION/POSITION TIME  TEMP    WIND        PRES    WAVE   SWELL
                       AIR SEA DIR/SP/G            HT/PER HT/PER/DIR
                 (UTC) (F)     (DEG/KT/KT) (MB)    (FT/S) (FT/S/D)
BUOY 41004       1610   73 74  130/ 14/ 17 1020.3
BUOY 41008       1550   71 68  120/ 10/ 12 1018.4F   4/ 6   3/110/ 6
FOLLY BEACH CMAN 1600   62      20/ 10/ 11 1021.4F
CAPERS NEARSHORE 1608   61 62   50/ 14/ 19 1020.6F
FRIPP NEARSHORE  1608   62 62   60/ 12/ 21 1019.8F


STATION/POSITION TIME  TEMP    WIND        PRES    WAVE   SWELL
                       AIR SEA DIR/SP/G            HT/PER HT/PER/DIR
                 (UTC) (F)     (DEG/KT/KT) (MB)    (FT/S) (FT/S/D)
5E ST. MARYS GA  1600      68                N/A     4/ 7
FRYING PAN BUOY  1610   71     140/ 12/ 16 1021.5
BUOY 41025       1610   69 77  190/ 10/ 16 1024.0
CAPE LOOKOUT NC  1600           30/  8/  9 1023.9F
BUOY 41002       1550   72 76  110/ 17/ 19 1022.3F   5/ 5   2/ 30/ 9
BUOY 41010       NOT AVBL
ST AUGUSTINE FL  1600   72 68  130/  8/  9 1017.6F


$$




USA.gov is the U.S. government's official web portal to all federal, state and local government web resources and services.